When you browse on this site, cookies collect data to enhance your experience and personalize the content and advertising you see.
Visit our Privacy Policy to learn more. By continuing to use the site, you agree to this use of cookies and data.
  • In Czech Republic
  • List of Countries
  • For 7 days
  • Water Temperature
  • Satellite Maps
  • Weather Map
  • Weather Widgets
  • user-avatar
    Login

    Hourly Weather Thimphu

    Today, 19 November, Monday

    Time Temperature Precipitation Wind Pressure Humidity
    00:00 +2°C° 0 mm 1 mps 522 mmHg 87%
    01:00 +1°C° 0 mm 1 mps 522 mmHg 86%
    02:00 +1°C° 0 mm 1 mps 521 mmHg 85%
    03:00 +1°C° 0 mm 1 mps 521 mmHg 83%
    04:00 +1°C° 0 mm 1 mps 521 mmHg 82%
    05:00 +1°C° 0 mm 1 mps 521 mmHg 81%
    06:00 +1°C° 0 mm 1 mps 521 mmHg 79%
    07:00 +3°C° 0 mm 1 mps 523 mmHg 69%
    08:00 +6°C° 0 mm 1 mps 525 mmHg 58%
    09:00 +8°C° 0 mm 1 mps 527 mmHg 48%
    10:00 +8°C° 0 mm 2 mps 527 mmHg 45%
    11:00 +9°C° 0 mm 2 mps 527 mmHg 43%
    12:00 +10°C° 0 mm 3 mps 528 mmHg 39%
    13:00 +10°C° 0 mm 3 mps 527 mmHg 43%
    14:00 +9°C° 0 mm 3 mps 526 mmHg 48%
    15:00 +9°C° 0 mm 3 mps 525 mmHg 52%
    16:00 +6°C° 0 mm 2 mps 524 mmHg 63%
    17:00 +4°C° 0 mm 2 mps 523 mmHg 75%
    18:00 +2°C° 0 mm 2 mps 522 mmHg 86%
    19:00 +2°C° 0 mm 2 mps 522 mmHg 84%
    20:00 +1°C° 0 mm 2 mps 522 mmHg 83%
    21:00 +1°C° 0 mm 2 mps 522 mmHg 81%
    22:00 +1°C° 0 mm 2 mps 522 mmHg 79%
    23:00 +1°C° 0 mm 2 mps 522 mmHg 77%

    Tomorrow, 20 November, Tuesday

    Time Temperature Precipitation Wind Pressure Humidity
    00:00 +1°C° 0 mm 2 mps 522 mmHg 75%
    01:00 +1°C° 0 mm 2 mps 522 mmHg 73%
    02:00 -1°C° 0 mm 2 mps 522 mmHg 71%
    03:00 +1°C° 0 mm 1 mps 521 mmHg 69%
    04:00 +1°C° 0 mm 1 mps 521 mmHg 67%
    05:00 +1°C° 0 mm 1 mps 521 mmHg 66%
    06:00 +1°C° 0 mm 1 mps 521 mmHg 64%
    07:00 +2°C° 0 mm 2 mps 523 mmHg 56%
    08:00 +5°C° 0 mm 2 mps 525 mmHg 48%
    09:00 +7°C° 0 mm 2 mps 527 mmHg 41%
    10:00 +8°C° 0 mm 2 mps 527 mmHg 39%
    11:00 +9°C° 0 mm 3 mps 527 mmHg 37%
    12:00 +10°C° 0 mm 3 mps 527 mmHg 35%
    13:00 +10°C° 0 mm 3 mps 526 mmHg 40%
    14:00 +9°C° 0 mm 3 mps 526 mmHg 44%
    15:00 +9°C° 0 mm 3 mps 525 mmHg 48%
    16:00 +6°C° 0 mm 2 mps 524 mmHg 60%
    17:00 +4°C° 0 mm 2 mps 522 mmHg 73%
    18:00 +1°C° 0 mm 2 mps 521 mmHg 85%
    19:00 +2°C° 0 mm 1 mps 521 mmHg 83%
    20:00 +2°C° 0 mm 1 mps 522 mmHg 80%
    21:00 +2°C° 0 mm 1 mps 522 mmHg 78%
    22:00 +1°C° 0 mm 2 mps 522 mmHg 74%
    23:00 -1°C° 0 mm 2 mps 522 mmHg 71%

    Day after tomorrow, 21 November, Wednesday

    Time Temperature Precipitation Wind Pressure Humidity
    00:00 -1°C° 0 mm 2 mps 522 mmHg 67%
    01:00 -1°C° 0 mm 2 mps 522 mmHg 61%
    02:00 -1°C° 0 mm 2 mps 522 mmHg 55%
    03:00 -1°C° 0 mm 2 mps 522 mmHg 49%
    04:00 -1°C° 0 mm 2 mps 522 mmHg 46%
    05:00 -1°C° 0 mm 3 mps 522 mmHg 43%
    06:00 -1°C° 0 mm 3 mps 522 mmHg 40%
    07:00 +3°C° 0 mm 2 mps 524 mmHg 36%
    08:00 +6°C° 0 mm 2 mps 527 mmHg 31%
    09:00 +9°C° 0 mm 2 mps 529 mmHg 27%
    10:00 +10°C° 0 mm 2 mps 529 mmHg 27%
    11:00 +12°C° 0 mm 2 mps 529 mmHg 28%
    12:00 +12°C° 0 mm 3 mps 529 mmHg 28%
    13:00 +11°C° 0 mm 3 mps 528 mmHg 34%
    14:00 +11°C° 0 mm 3 mps 527 mmHg 39%
    15:00 +10°C° 0 mm 3 mps 527 mmHg 45%
    16:00 +7°C° 0 mm 2 mps 525 mmHg 58%
    17:00 +5°C° 0 mm 2 mps 524 mmHg 71%
    18:00 +3°C° 0 mm 1 mps 523 mmHg 84%
    19:00 +3°C° 0 mm 1 mps 523 mmHg 81%
    20:00 +3°C° 0 mm 1 mps 524 mmHg 77%
    21:00 +2°C° 0 mm 2 mps 524 mmHg 74%
    22:00 +2°C° 0 mm 2 mps 524 mmHg 70%
    23:00 +2°C° 0 mm 2 mps 524 mmHg 66%

    22 November, Thursday

    Time Temperature Precipitation Wind Pressure Humidity
    00:00 +2°C° 0 mm 2 mps 524 mmHg 62%
    01:00 +2°C° 0 mm 2 mps 523 mmHg 58%
    02:00 +2°C° 0 mm 2 mps 523 mmHg 53%
    03:00 +1°C° 0 mm 2 mps 523 mmHg 48%
    04:00 +1°C° 0 mm 2 mps 523 mmHg 44%
    05:00 +1°C° 0 mm 2 mps 523 mmHg 41%
    06:00 +1°C° 0 mm 2 mps 523 mmHg 37%
    07:00 +4°C° 0 mm 2 mps 526 mmHg 34%
    08:00 +8°C° 0 mm 1 mps 528 mmHg 31%
    09:00 +11°C° 0 mm 1 mps 530 mmHg 28%
    10:00 +12°C° 0 mm 1 mps 530 mmHg 28%
    11:00 +13°C° 0 mm 2 mps 530 mmHg 29%
    12:00 +14°C° 0 mm 2 mps 530 mmHg 30%
    13:00 +13°C° 0 mm 2 mps 530 mmHg 35%
    14:00 +13°C° 0 mm 2 mps 529 mmHg 40%
    15:00 +12°C° 0 mm 2 mps 528 mmHg 45%
    16:00 +9°C° 0 mm 2 mps 527 mmHg 58%
    17:00 +6°C° 0 mm 2 mps 525 mmHg 71%
    18:00 +5°C° 0 mm 1 mps 524 mmHg 84%
    19:00 +4°C° 0 mm 1 mps 524 mmHg 83%
    20:00 +4°C° 0 mm 1 mps 525 mmHg 81%
    21:00 +4°C° 0 mm 1 mps 525 mmHg 80%
    22:00 +4°C° 0 mm 1 mps 525 mmHg 79%
    23:00 +3°C° 0 mm 2 mps 525 mmHg 78%

    23 November, Friday

    Time Temperature Precipitation Wind Pressure Humidity
    00:00 +2°C° 0 mm 2 mps 524 mmHg 77%
    01:00 +2°C° 0 mm 2 mps 524 mmHg 75%
    02:00 +2°C° 0 mm 2 mps 524 mmHg 74%
    03:00 +2°C° 0 mm 2 mps 523 mmHg 72%
    04:00 +1°C° 0 mm 2 mps 523 mmHg 70%
    05:00 +1°C° 0 mm 2 mps 523 mmHg 69%
    06:00 +1°C° 0 mm 2 mps 523 mmHg 67%
    07:00 +4°C° 0 mm 2 mps 525 mmHg 57%
    08:00 +6°C° 0 mm 2 mps 527 mmHg 48%
    09:00 +9°C° 0 mm 2 mps 528 mmHg 39%
    10:00 +10°C° 0 mm 2 mps 529 mmHg 37%
    11:00 +12°C° 0 mm 2 mps 529 mmHg 34%
    12:00 +12°C° 0 mm 3 mps 529 mmHg 32%
    13:00 +11°C° 0 mm 3 mps 528 mmHg 34%
    14:00 +12°C° 0 mm 2 mps 527 mmHg 36%
    15:00 +12°C° 0 mm 2 mps 527 mmHg 38%
    16:00 +8°C° 0 mm 2 mps 525 mmHg 49%
    17:00 +5°C° 0 mm 2 mps 524 mmHg 60%
    18:00 +3°C° 0 mm 1 mps 523 mmHg 71%
    19:00 +2°C° 0 mm 2 mps 523 mmHg 66%
    20:00 +2°C° 0 mm 2 mps 524 mmHg 61%
    21:00 +2°C° 0 mm 2 mps 524 mmHg 56%
    22:00 +2°C° 0 mm 2 mps 524 mmHg 52%
    23:00 +2°C° 0 mm 2 mps 524 mmHg 48%

    24 November, Saturday

    Time Temperature Precipitation Wind Pressure Humidity
    00:00 +1°C° 0 mm 3 mps 524 mmHg 43%
    01:00 +1°C° 0 mm 3 mps 524 mmHg 41%
    02:00 +1°C° 0 mm 3 mps 524 mmHg 38%
    03:00 +1°C° 0 mm 3 mps 524 mmHg 36%
    04:00 +1°C° 0 mm 3 mps 524 mmHg 34%
    05:00 0°C° 0 mm 3 mps 524 mmHg 32%
    06:00 0°C° 0 mm 3 mps 524 mmHg 30%
    07:00 +3°C° 0 mm 3 mps 526 mmHg 26%
    08:00 +7°C° 0 mm 2 mps 529 mmHg 22%
    09:00 +10°C° 0 mm 2 mps 531 mmHg 18%
    10:00 +13°C° 0 mm 2 mps 531 mmHg 19%
    11:00 +14°C° 0 mm 2 mps 531 mmHg 19%
    12:00 +15°C° 0 mm 2 mps 532 mmHg 19%
    13:00 +14°C° 0 mm 2 mps 531 mmHg 23%
    14:00 +13°C° 0 mm 2 mps 530 mmHg 28%
    15:00 +13°C° 0 mm 2 mps 529 mmHg 32%
    16:00 +9°C° 0 mm 2 mps 528 mmHg 44%
    17:00 +6°C° 0 mm 2 mps 526 mmHg 57%
    18:00 +4°C° 0 mm 1 mps 525 mmHg 69%
    19:00 +3°C° 0 mm 2 mps 525 mmHg 65%
    20:00 +3°C° 0 mm 2 mps 525 mmHg 60%
    21:00 +3°C° 0 mm 2 mps 525 mmHg 56%
    22:00 +3°C° 0 mm 2 mps 525 mmHg 53%
    23:00 +3°C° 0 mm 2 mps 525 mmHg 50%
    Show more